SCP
0 0 0 0 0 0 0 0 0 0 0 0 0 0 0 0 0 0 0 0 0 0 0 0 0 0 0 0 0 -0 -0 0 -0 0 0 0 0 0 0 0 0 0 0
0 0 0 0 0 0 0 0 0 0 0 0 0 0 0 0 0 0 0 0 0 0 0 0 0 0 0 0 0 0 0 0 0 0 0 0 0 0 0 0 0 0 0
0 0 0 0 0 0 0 0 0 0 0 0 0 0 0 0 0 0 0 0 0 0 0 0 0 0 0 0 0 0 0 0 0 0 0 0 0 0 0 0 0 0 0
0 0 0 0 0 0 0 0 0 0 0 0 0 0 0 -0 0 0 0 0 -0 -0 -0 -0 0 0 0 0 0 0 0 0 -0 0 0 0 0 0 0 0 0 0 0
0 0 0 0 0 0 0 0 0 0 0 0 -0 -0 -0 -0 -0 -0 0 -0 -0 -0 -0 -0 -0 -0 -0 0 -0 0 0 0 -0 -0 0 0 0 0 0 0 0 0 0
0 0 0 0 0 0 -0 0 0 0 0 0 0 0 0 0 0 0 0 0 0 0 0 0 0 0 0 -0 -0 -0 0 0 0 -0 -0 0 0 0 0 0 0 0 0
0 0 0 0 0 -0 -0 -0 0 0 0 0 0 0 0 0 0 0 0 0 0 0 -0 -0 0 0 0 -0 -0 -0 0 0 0 -0 -0 0 0 0 0 0 0 0 0
0 0 0 0 0 -0 -0 -0 0 0 0 0 0 0 0 0 0 0 0 0 0 0 0 0 -0 -0 -0 -0 -0 0 0 0 0 -0 -0 -0 -0 -0 0 0 0 0 -0
0 0 0 0 0 0 -0 -0 0 0 0 0 0 0 0 0 0 0 0 0 0 0 0 0 0 0 0 0 -0 -0 -0 0 0 0 0 -0 -0 -0 0 0 0 0 -0
0 0 0 0 0 0 0 0 0 0 0 0 0 0 0 0 0 0 0 0 0 0 0 0 0 0 0 0 0 0 0 0 0 0 0 0 0 0 -0 0 0 -0 -0
0 0 0 0 0 0 0 0 0 0 0 0 0 0 0 0 0 0 0 0 0 0 0 0 0 0 0 0 0 0 -0 -0 0 0 0 0 0 0 0 0 0 -0 -0
0 0 0 0 0 0 0 0 0 0 0 0 0 0 0 0 0 0 0 0 0 0 0 0 0 0 0 0 0 0 0 0 0 0 0 0 0 0 0 0 0 0 -0
0 0 0 0 0 0 0 0 0 0 0 0 0 0 0 0 0 0 0 0 0 0 0 0 0 0 0 0 0 0 0 0 0 0 0 0 -0 -0 0 0 0 0 0
0 0 0 0 0 0 0 0 0 0 0 0 0 0 0 0 0 0 0 0 0 0 0 0 0 0 0 0 0 0 0 0 0 0 0 0 0 0 0 0 0 0 0
0 0 0 0 0 0 0 0 0 0 0 0 0 0 0 0 0 0 0 0 0 0 0 0 0 0 0 0 0 0 0 0 0 0 0 0 0 0 0 0 0 0 -0
0 0 0 0 0 0 0 0 0 0 0 0 0 0 0 0 0 0 0 0 0 0 0 0 0 0 0 0 0 0 0 0 0 0 0 0 0 0 0 0 0 0 -0
0 0 0 0 0 0 0 0 0 0 0 0 0 0 0 0 0 0 0 0 0 0 0 0 0 0 0 0 0 0 0 0 0 0 0 0 0 0 0 0 0 0 0
0 0 0 0 0 0 0 0 0 0 0 0 0 0 0 0 0 0 0 0 0 0 0 0 0 0 0 0 0 0 0 0 0 0 0 0 0 0 0 0 0 0 0
0 0 0 0 0 0 0 0 0 0 0 0 0 0 0 0 0 0 0 0 0 0 0 0 0 0 0 0 0 0 0 0 0 0 0 0 0 0 0 0 0 0 0
0 0 0 0 0 0 0 0 0 0 0 0 0 0 0 0 0 0 0 0 0 0 0 0 0 0 0 0 0 0 0 0 0 0 0 0 0 0 0 0 0 0 0
0 0 0 0 0 0 0 0 0 0 0 0 0 0 0 0 0 0 0 0 0 0 0 0 0 0 0 0 0 0 0 0 0 0 0 0 0 0 0 0 0 0 0
0 0 0 0 0 0 0 0 0 0 0 0 0 0 0 0 0 0 0 0 0 0 0 0 0 0 0 0 0 0 0 0 0 0 0 0 0 0 0 0 0 0 0
0 0 0 0 0 0 0 0 0 0 0 0 0 0 0 0 0 0 0 0 0 0 0 0 0 0 0 0 0 0 0 0 0 0 0 0 0 0 0 0 0 0 0
0 0 0 0 0 0 0 0 0 0 0 0 0 0 0 0 0 0 0 0 0 0 0 0 0 0 0 0 0 0 0 0 0 0 0 0 0 0 0 0 0 0 0
0 0 0 0 0 0 0 0 0 0 0 0 0 0 0 0 0 0 0 0 0 0 0 0 0 0 0 0 0 0 0 0 0 0 0 0 0 0 0 0 0 0 0
0 0 0 0 0 0 0 0 0 0 0 0 0 0 0 0 0 0 0 0 0 0 0 0 0 0 0 0 0 0 0 0 0 0 0 0 0 0 0 0 0 0 0
Wind_Speed_500mb
17 14 10 9 10 12 15 17 18 23 26 30 34 32 29 29 31 31 31 33 34 31 28 28 33 34 35 36 39 41 43 49 60 68 56 56 52 53 44 39 24 14 31
11 10 8 3 3 8 18 21 23 27 25 29 35 32 28 28 30 32 34 35 39 39 37 32 35 36 36 38 41 46 47 46 49 59 60 58 54 44 33 32 17 5 24
12 10 5 8 11 16 23 24 25 28 26 30 36 36 31 28 30 30 33 35 39 42 42 38 41 44 42 42 41 43 47 47 51 49 58 57 63 58 40 36 22 17 5
17 15 17 17 19 21 24 23 27 30 30 32 35 36 30 30 30 31 32 34 38 42 44 44 45 48 46 44 43 43 47 50 51 55 63 66 71 69 60 56 41 27 16
19 19 18 20 22 21 20 21 25 26 27 26 33 37 34 34 35 34 34 35 36 38 43 44 45 45 44 43 44 45 44 48 51 56 60 68 76 81 80 68 55 35 24
21 19 18 20 19 16 15 18 17 21 26 28 28 33 33 34 33 31 31 33 35 36 39 41 43 41 47 45 42 41 38 38 45 50 50 60 69 71 63 64 55 58 61
23 22 20 21 18 15 13 12 15 19 20 23 26 27 27 29 30 30 29 28 31 34 36 39 42 44 45 46 40 39 38 35 34 37 42 48 56 65 60 59 52 30 37
25 26 25 22 20 18 14 11 11 10 11 16 19 22 24 26 28 29 30 29 30 34 36 37 40 43 44 45 44 42 41 41 42 38 37 38 38 46 48 53 51 36 16
29 30 28 24 22 20 17 13 8 4 7 11 14 16 20 25 27 28 29 29 30 32 35 36 38 40 43 41 42 44 44 43 42 39 38 38 36 41 46 47 60 64 53
35 34 30 26 23 22 18 12 8 1 6 10 11 14 19 24 27 29 30 30 31 33 35 37 39 41 42 44 44 47 48 51 45 42 43 43 46 47 47 49 51 57 59
33 32 28 25 24 21 15 9 4 2 5 8 11 16 20 23 27 31 34 36 37 38 39 40 40 39 42 44 44 46 48 44 44 47 49 50 51 52 53 51 44 45 50
31 28 28 25 23 20 15 10 7 7 7 7 12 15 17 21 24 28 31 32 33 33 36 36 37 38 40 42 43 43 43 45 48 52 54 56 60 60 56 51 46 37 37
36 33 31 27 22 16 13 12 11 9 8 10 12 15 17 21 22 25 28 29 29 28 30 32 32 32 32 33 35 37 39 45 50 54 60 60 58 54 51 51 49 45 41
41 39 35 30 25 21 19 18 16 14 13 15 18 19 18 20 21 23 27 29 31 31 31 33 30 28 30 31 33 37 41 43 47 48 50 52 53 55 56 57 57 56 54
44 41 38 34 28 25 23 21 20 20 19 19 19 18 17 20 23 28 31 28 30 30 29 31 29 30 31 34 38 41 42 43 45 48 49 50 52 52 55 58 59 59 62
47 46 41 35 31 28 26 24 22 21 22 23 21 20 20 20 22 28 33 31 30 31 34 35 37 37 37 38 38 39 41 44 45 47 50 52 55 57 57 54 55 60 63
49 46 43 39 35 31 27 23 21 22 25 22 20 17 18 20 25 32 36 31 30 30 35 40 39 39 40 39 39 40 40 42 38 40 47 50 51 53 56 57 57 57 58
45 43 42 39 34 31 29 29 29 28 27 23 20 20 18 20 25 28 34 32 29 31 35 40 38 36 36 37 36 39 39 40 37 40 44 49 50 53 55 55 55 57 58
48 42 39 37 34 35 37 36 32 31 26 23 23 23 24 25 27 30 34 35 30 32 34 40 37 35 34 33 31 33 35 40 35 38 44 48 50 53 54 55 55 54 56
44 44 43 44 44 44 40 35 32 29 27 26 26 27 30 31 31 32 38 32 29 32 34 39 37 33 29 30 28 29 34 37 34 38 46 50 51 55 59 59 56 56 55
46 46 47 48 48 42 37 35 33 32 29 30 30 31 35 32 32 34 37 31 30 31 35 35 32 24 25 25 26 30 37 38 39 40 46 51 53 56 60 64 61 56 55
51 52 51 49 44 38 34 31 31 32 30 31 33 37 34 34 34 36 33 32 30 31 34 31 28 26 27 29 31 35 42 44 43 44 48 53 54 57 61 68 68 63 57
51 51 51 49 44 38 36 34 32 30 32 35 34 33 33 34 32 32 31 29 30 32 30 29 29 29 30 34 37 42 45 48 49 49 52 55 56 57 62 68 72 73 61
43 45 48 48 45 44 41 39 36 35 39 36 33 34 33 33 32 30 28 29 31 31 30 31 33 37 41 44 46 48 52 55 53 52 53 57 60 57 63 67 70 74 62
43 44 47 48 49 50 48 46 42 40 39 37 37 33 33 32 31 29 29 28 28 28 31 36 42 47 50 52 53 54 54 53 59 57 52 59 58 63 62 65 70 72 58
41 42 43 44 47 45 43 41 42 41 39 37 35 33 31 30 28 26 21 22 27 33 40 46 52 58 62 64 61 59 61 66 62 56 55 57 60 61 62 67 68 60 50
Wind_Direction_500mb
229 245 264 294 327 350 13 33 41 37 37 31 26 25 28 29 32 32 34 27 21 18 9 9 8 9 10 5 4 2 359 351 339 338 345 332 328 321 302 302 253 243 251
228 230 254 299 354 50 53 58 51 42 37 33 29 32 35 34 36 35 35 28 24 23 20 17 11 12 11 9 7 8 7 6 352 343 356 0 1 354 340 330 307 287 233
189 176 113 102 97 90 69 61 55 45 45 40 37 40 42 41 37 34 32 29 28 27 26 21 18 14 12 8 9 9 9 12 10 2 360 9 13 13 6 6 352 352 131
152 137 103 101 104 95 78 66 61 53 53 48 45 46 45 49 43 38 34 32 31 29 29 29 29 23 12 6 5 3 4 7 8 10 7 10 11 18 21 13 1 10 10
137 131 122 113 104 95 83 72 61 59 59 56 49 46 43 45 41 38 34 32 32 31 30 30 35 36 25 14 6 5 -0 5 10 11 9 10 7 15 22 20 15 11 1
146 141 136 126 117 112 97 76 67 63 55 52 50 46 39 39 37 31 28 24 25 25 26 27 28 30 34 24 18 15 6 9 16 14 12 9 11 9 19 26 28 19 14
158 158 151 146 138 134 112 98 79 62 50 43 40 37 35 38 33 27 22 18 16 19 20 20 25 21 26 29 26 27 24 24 26 21 18 14 12 10 13 23 28 40 24
176 168 163 159 149 143 133 116 92 68 48 38 31 26 25 32 31 26 21 17 15 15 13 14 17 17 19 18 20 29 31 30 36 35 33 26 23 16 18 25 25 32 31
179 173 169 167 159 149 149 139 112 66 16 12 16 15 17 22 23 22 17 16 15 16 13 12 12 13 13 15 15 21 25 30 37 40 41 42 41 41 26 20 23 23 24
181 182 177 174 172 169 165 154 146 153 335 345 350 5 12 11 14 12 11 12 13 14 14 14 14 11 11 10 13 15 19 19 18 23 29 33 34 38 39 34 30 30 24
186 185 181 179 178 185 190 192 200 271 290 313 344 0 360 2 3 4 3 3 7 7 6 9 10 8 8 5 9 15 18 13 19 20 21 25 27 29 33 37 38 32 23
194 185 187 187 187 191 196 212 233 249 269 307 337 349 345 349 355 358 356 355 356 357 359 3 3 0 359 360 5 7 5 9 16 20 22 22 20 19 23 28 32 36 35
192 189 186 183 188 194 200 215 229 239 264 302 315 321 324 336 344 349 349 351 353 357 0 3 358 355 357 358 360 358 359 7 11 15 18 19 20 19 13 15 18 20 26
191 190 189 191 196 202 212 224 239 254 272 291 302 310 317 328 336 346 356 354 351 354 358 358 355 358 359 1 2 5 9 13 15 15 13 11 9 10 11 12 11 8 7
192 195 197 202 205 210 218 233 249 265 278 290 297 309 326 339 352 4 5 1 348 354 352 347 350 355 357 0 5 6 8 11 11 11 9 9 8 8 8 6 7 7 10
199 203 205 211 215 221 229 239 253 268 282 294 306 316 329 349 359 357 360 355 342 355 349 350 353 356 360 4 4 5 4 6 6 4 6 5 5 5 4 5 4 5 6
208 211 215 220 225 228 238 248 264 277 287 292 299 308 324 337 342 347 348 338 334 342 348 352 350 349 355 359 1 3 3 4 3 1 3 3 1 1 1 1 0 0 0
214 220 227 232 237 249 259 268 276 277 278 281 291 300 315 323 325 330 333 328 321 335 342 346 345 342 345 352 354 357 360 358 360 2 4 4 3 360 358 358 357 356 356
223 228 237 242 248 255 260 267 269 273 279 283 287 298 310 309 313 320 325 323 322 337 334 340 342 340 340 345 347 353 357 356 353 355 359 360 360 358 356 354 351 350 350
234 240 245 248 253 259 262 262 267 271 273 280 285 291 298 301 309 313 317 318 323 332 331 333 336 337 339 344 345 349 354 354 349 349 352 354 355 356 354 352 348 345 344
238 243 247 250 252 255 260 266 267 268 273 287 283 289 297 301 306 308 311 312 319 324 325 328 334 339 342 346 347 346 346 350 348 341 343 347 350 350 349 349 346 341 338
242 246 250 251 252 254 261 271 267 265 274 283 282 287 290 297 298 303 303 307 311 316 319 324 333 337 337 340 342 340 337 337 338 336 337 337 337 338 338 341 343 340 334
246 247 248 250 252 255 257 263 267 271 277 281 286 285 287 291 295 299 301 306 309 311 316 318 323 327 328 328 329 330 329 328 329 326 324 325 326 325 327 330 335 338 332
249 249 251 254 255 258 259 261 267 265 273 276 278 279 289 292 294 298 301 305 306 310 312 314 315 316 316 315 314 312 315 319 319 317 315 315 312 307 313 318 326 330 325
254 253 252 253 253 255 259 262 264 267 273 275 280 276 286 287 293 296 300 304 310 312 312 310 309 309 309 308 299 294 293 295 304 300 299 296 296 298 304 310 318 322 318
256 256 257 256 256 255 255 258 263 267 269 274 270 277 281 287 285 296 298 298 297 298 298 299 298 295 290 287 288 289 293 300 302 300 297 294 289 292 299 306 313 316 312
Wind_Speed_850mb
17 14 10 9 10 12 15 17 18 23 26 30 34 32 29 29 31 31 31 33 34 31 28 28 33 34 35 36 39 41 43 49 60 68 56 56 52 53 44 39 24 14 31
11 10 8 3 3 8 18 21 23 27 25 29 35 32 28 28 30 32 34 35 39 39 37 32 35 36 36 38 41 46 47 46 49 59 60 58 54 44 33 32 17 5 24
12 10 5 8 11 16 23 24 25 28 26 30 36 36 31 28 30 30 33 35 39 42 42 38 41 44 42 42 41 43 47 47 51 49 58 57 63 58 40 36 22 17 5
17 15 17 17 19 21 24 23 27 30 30 32 35 36 30 30 30 31 32 34 38 42 44 44 45 48 46 44 43 43 47 50 51 55 63 66 71 69 60 56 41 27 16
19 19 18 20 22 21 20 21 25 26 27 26 33 37 34 34 35 34 34 35 36 38 43 44 45 45 44 43 44 45 44 48 51 56 60 68 76 81 80 68 55 35 24
21 19 18 20 19 16 15 18 17 21 26 28 28 33 33 34 33 31 31 33 35 36 39 41 43 41 47 45 42 41 38 38 45 50 50 60 69 71 63 64 55 58 61
23 22 20 21 18 15 13 12 15 19 20 23 26 27 27 29 30 30 29 28 31 34 36 39 42 44 45 46 40 39 38 35 34 37 42 48 56 65 60 59 52 30 37
25 26 25 22 20 18 14 11 11 10 11 16 19 22 24 26 28 29 30 29 30 34 36 37 40 43 44 45 44 42 41 41 42 38 37 38 38 46 48 53 51 36 16
29 30 28 24 22 20 17 13 8 4 7 11 14 16 20 25 27 28 29 29 30 32 35 36 38 40 43 41 42 44 44 43 42 39 38 38 36 41 46 47 60 64 53
35 34 30 26 23 22 18 12 8 1 6 10 11 14 19 24 27 29 30 30 31 33 35 37 39 41 42 44 44 47 48 51 45 42 43 43 46 47 47 49 51 57 59
33 32 28 25 24 21 15 9 4 2 5 8 11 16 20 23 27 31 34 36 37 38 39 40 40 39 42 44 44 46 48 44 44 47 49 50 51 52 53 51 44 45 50
31 28 28 25 23 20 15 10 7 7 7 7 12 15 17 21 24 28 31 32 33 33 36 36 37 38 40 42 43 43 43 45 48 52 54 56 60 60 56 51 46 37 37
36 33 31 27 22 16 13 12 11 9 8 10 12 15 17 21 22 25 28 29 29 28 30 32 32 32 32 33 35 37 39 45 50 54 60 60 58 54 51 51 49 45 41
41 39 35 30 25 21 19 18 16 14 13 15 18 19 18 20 21 23 27 29 31 31 31 33 30 28 30 31 33 37 41 43 47 48 50 52 53 55 56 57 57 56 54
44 41 38 34 28 25 23 21 20 20 19 19 19 18 17 20 23 28 31 28 30 30 29 31 29 30 31 34 38 41 42 43 45 48 49 50 52 52 55 58 59 59 62
47 46 41 35 31 28 26 24 22 21 22 23 21 20 20 20 22 28 33 31 30 31 34 35 37 37 37 38 38 39 41 44 45 47 50 52 55 57 57 54 55 60 63
49 46 43 39 35 31 27 23 21 22 25 22 20 17 18 20 25 32 36 31 30 30 35 40 39 39 40 39 39 40 40 42 38 40 47 50 51 53 56 57 57 57 58
45 43 42 39 34 31 29 29 29 28 27 23 20 20 18 20 25 28 34 32 29 31 35 40 38 36 36 37 36 39 39 40 37 40 44 49 50 53 55 55 55 57 58
48 42 39 37 34 35 37 36 32 31 26 23 23 23 24 25 27 30 34 35 30 32 34 40 37 35 34 33 31 33 35 40 35 38 44 48 50 53 54 55 55 54 56
44 44 43 44 44 44 40 35 32 29 27 26 26 27 30 31 31 32 38 32 29 32 34 39 37 33 29 30 28 29 34 37 34 38 46 50 51 55 59 59 56 56 55
46 46 47 48 48 42 37 35 33 32 29 30 30 31 35 32 32 34 37 31 30 31 35 35 32 24 25 25 26 30 37 38 39 40 46 51 53 56 60 64 61 56 55
51 52 51 49 44 38 34 31 31 32 30 31 33 37 34 34 34 36 33 32 30 31 34 31 28 26 27 29 31 35 42 44 43 44 48 53 54 57 61 68 68 63 57
51 51 51 49 44 38 36 34 32 30 32 35 34 33 33 34 32 32 31 29 30 32 30 29 29 29 30 34 37 42 45 48 49 49 52 55 56 57 62 68 72 73 61
43 45 48 48 45 44 41 39 36 35 39 36 33 34 33 33 32 30 28 29 31 31 30 31 33 37 41 44 46 48 52 55 53 52 53 57 60 57 63 67 70 74 62
43 44 47 48 49 50 48 46 42 40 39 37 37 33 33 32 31 29 29 28 28 28 31 36 42 47 50 52 53 54 54 53 59 57 52 59 58 63 62 65 70 72 58
41 42 43 44 47 45 43 41 42 41 39 37 35 33 31 30 28 26 21 22 27 33 40 46 52 58 62 64 61 59 61 66 62 56 55 57 60 61 62 67 68 60 50
Wind_Direction_850mb
229 245 264 294 327 350 13 33 41 37 37 31 26 25 28 29 32 32 34 27 21 18 9 9 8 9 10 5 4 2 359 351 339 338 345 332 328 321 302 302 253 243 251
228 230 254 299 354 50 53 58 51 42 37 33 29 32 35 34 36 35 35 28 24 23 20 17 11 12 11 9 7 8 7 6 352 343 356 0 1 354 340 330 307 287 233
189 176 113 102 97 90 69 61 55 45 45 40 37 40 42 41 37 34 32 29 28 27 26 21 18 14 12 8 9 9 9 12 10 2 360 9 13 13 6 6 352 352 131
152 137 103 101 104 95 78 66 61 53 53 48 45 46 45 49 43 38 34 32 31 29 29 29 29 23 12 6 5 3 4 7 8 10 7 10 11 18 21 13 1 10 10
137 131 122 113 104 95 83 72 61 59 59 56 49 46 43 45 41 38 34 32 32 31 30 30 35 36 25 14 6 5 -0 5 10 11 9 10 7 15 22 20 15 11 1
146 141 136 126 117 112 97 76 67 63 55 52 50 46 39 39 37 31 28 24 25 25 26 27 28 30 34 24 18 15 6 9 16 14 12 9 11 9 19 26 28 19 14
158 158 151 146 138 134 112 98 79 62 50 43 40 37 35 38 33 27 22 18 16 19 20 20 25 21 26 29 26 27 24 24 26 21 18 14 12 10 13 23 28 40 24
176 168 163 159 149 143 133 116 92 68 48 38 31 26 25 32 31 26 21 17 15 15 13 14 17 17 19 18 20 29 31 30 36 35 33 26 23 16 18 25 25 32 31
179 173 169 167 159 149 149 139 112 66 16 12 16 15 17 22 23 22 17 16 15 16 13 12 12 13 13 15 15 21 25 30 37 40 41 42 41 41 26 20 23 23 24
181 182 177 174 172 169 165 154 146 153 335 345 350 5 12 11 14 12 11 12 13 14 14 14 14 11 11 10 13 15 19 19 18 23 29 33 34 38 39 34 30 30 24
186 185 181 179 178 185 190 192 200 271 290 313 344 0 360 2 3 4 3 3 7 7 6 9 10 8 8 5 9 15 18 13 19 20 21 25 27 29 33 37 38 32 23
194 185 187 187 187 191 196 212 233 249 269 307 337 349 345 349 355 358 356 355 356 357 359 3 3 0 359 360 5 7 5 9 16 20 22 22 20 19 23 28 32 36 35
192 189 186 183 188 194 200 215 229 239 264 302 315 321 324 336 344 349 349 351 353 357 0 3 358 355 357 358 360 358 359 7 11 15 18 19 20 19 13 15 18 20 26
191 190 189 191 196 202 212 224 239 254 272 291 302 310 317 328 336 346 356 354 351 354 358 358 355 358 359 1 2 5 9 13 15 15 13 11 9 10 11 12 11 8 7
192 195 197 202 205 210 218 233 249 265 278 290 297 309 326 339 352 4 5 1 348 354 352 347 350 355 357 0 5 6 8 11 11 11 9 9 8 8 8 6 7 7 10
199 203 205 211 215 221 229 239 253 268 282 294 306 316 329 349 359 357 360 355 342 355 349 350 353 356 360 4 4 5 4 6 6 4 6 5 5 5 4 5 4 5 6
208 211 215 220 225 228 238 248 264 277 287 292 299 308 324 337 342 347 348 338 334 342 348 352 350 349 355 359 1 3 3 4 3 1 3 3 1 1 1 1 0 0 0
214 220 227 232 237 249 259 268 276 277 278 281 291 300 315 323 325 330 333 328 321 335 342 346 345 342 345 352 354 357 360 358 360 2 4 4 3 360 358 358 357 356 356
223 228 237 242 248 255 260 267 269 273 279 283 287 298 310 309 313 320 325 323 322 337 334 340 342 340 340 345 347 353 357 356 353 355 359 360 360 358 356 354 351 350 350
234 240 245 248 253 259 262 262 267 271 273 280 285 291 298 301 309 313 317 318 323 332 331 333 336 337 339 344 345 349 354 354 349 349 352 354 355 356 354 352 348 345 344
238 243 247 250 252 255 260 266 267 268 273 287 283 289 297 301 306 308 311 312 319 324 325 328 334 339 342 346 347 346 346 350 348 341 343 347 350 350 349 349 346 341 338
242 246 250 251 252 254 261 271 267 265 274 283 282 287 290 297 298 303 303 307 311 316 319 324 333 337 337 340 342 340 337 337 338 336 337 337 337 338 338 341 343 340 334
246 247 248 250 252 255 257 263 267 271 277 281 286 285 287 291 295 299 301 306 309 311 316 318 323 327 328 328 329 330 329 328 329 326 324 325 326 325 327 330 335 338 332
249 249 251 254 255 258 259 261 267 265 273 276 278 279 289 292 294 298 301 305 306 310 312 314 315 316 316 315 314 312 315 319 319 317 315 315 312 307 313 318 326 330 325
254 253 252 253 253 255 259 262 264 267 273 275 280 276 286 287 293 296 300 304 310 312 312 310 309 309 309 308 299 294 293 295 304 300 299 296 296 298 304 310 318 322 318
256 256 257 256 256 255 255 258 263 267 269 274 270 277 281 287 285 296 298 298 297 298 298 299 298 295 290 287 288 289 293 300 302 300 297 294 289 292 299 306 313 316 312